Location: Marsån
(66.4167°N, 22.2833°E)
Time: 12:00:09
(UTC+00:00)

Cosmos 1953 Rocket - Pass Details

Date: 24 February 2024
Orbit: 601 x 631 km, 82.5° (Epoch: 16 April)

Event Time Altitude Azimuth Distance (km) Brightness Sun altitude
Rises 17:54:11 0° 184° (S) 2,871 6.9 -15.6°
Reaches altitude 10° 17:56:24 10° 181° (S) 1,975 6.0 -15.8°
Maximum altitude 18:00:43 62° 101° (E) 702 3.5 -16.3°
Drops below altitude 10° 18:05:06 10° 21° (NNE) 2,007 6.1 -16.7°
Sets 18:07:22 0° 18° (NNE) 2,923 7.0 -16.9°
